Date String (YYYY-MM-DD hh:mm:ss) UTC,Instrument flags,Ambient pressure (hPa),Sample flow (lpm),Bypass flow (lpm),Sample temperature (°C),Ambient temperature (°C),ASC tube jacket temperature (°C),LED temperature (°C),Box temperature (°C),Sample RH (%),Span deviation,Mass concentration (μg/m³),Mass concentration (μg/m³),Mass concentration (μg/m³)
DateTimeUTC,F1_M11,P_M11,Q1_M11,Q2_M11,T1_M11,T2_M11,T3_M11,T4_M11,T5_M11,U1_M11,ZSPAN_M11,X0_M11,X2_M11,X1_M11
2023-01-18 04:00:00,,0814.6,4.99,0.00,22.5,21.2,00.0,31.2,24.3,15.5,-002.4,0016.56,0014.78,0014.67
2023-01-18 04:01:00,,0814.3,5.01,0.00,22.5,21.1,00.0,31.2,24.3,15.5,-002.3,0016.50,0014.71,0014.60
2023-01-18 04:02:00,,0814.2,5.01,0.00,22.5,21.1,00.0,31.2,24.2,15.5,-002.4,0016.54,0014.65,0014.51
2023-01-18 04:03:00,,0814.4,5.01,0.00,22.5,21.0,00.0,31.2,24.2,15.5,-002.3,0016.39,0014.54,0014.41
2023-01-18 04:04:00,,0814.4,4.99,0.00,22.4,21.0,00.0,31.2,24.2,15.5,-002.5,0016.22,0014.39,0014.27
2023-01-18 04:05:00,,0814.4,5.00,0.00,22.4,21.0,00.0,31.2,24.2,15.6,-002.6,0016.03,0014.21,0014.09
2023-01-18 04:06:00,,0814.3,5.00,0.00,22.4,21.0,00.0,31.2,24.2,15.6,-002.4,0015.84,0014.00,0013.88
2023-01-18 04:07:00,,0814.3,5.00,0.00,22.4,21.0,00.0,31.2,24.2,15.6,-002.6,0015.68,0013.83,0013.71
2023-01-18 04:08:00,,0814.3,4.99,0.00,22.4,20.9,00.0,31.2,24.1,15.6,-002.4,0015.51,0013.67,0013.55
2023-01-18 04:09:00,,0814.6,5.00,0.00,22.4,20.9,00.0,31.2,24.1,15.6,-002.5,0015.28,0013.47,0013.35
2023-01-18 04:10:00,,0814.4,5.00,0.00,22.4,20.9,00.0,31.2,24.1,15.6,-002.4,0015.03,0013.26,0013.14
2023-01-18 04:11:00,,0814.2,5.00,0.00,22.4,21.0,00.0,31.2,24.1,15.6,-002.4,0014.92,0013.02,0012.90
2023-01-18 04:12:00,,0814.3,5.00,0.00,22.4,21.0,00.0,31.2,24.1,15.6,-002.3,0014.67,0012.73,0012.61
2023-01-18 04:13:00,,0814.3,5.01,0.00,22.4,21.0,00.0,31.2,24.1,15.6,-002.2,0014.24,0012.38,0012.31
2023-01-18 04:14:00,,0814.2,5.00,0.00,22.4,20.9,00.0,31.2,24.1,15.6,-002.3,0013.90,0012.09,0012.02
2023-01-18 04:15:00,,0814.3,5.00,0.00,22.3,20.9,00.0,31.2,24.1,15.7,-002.4,0013.65,0011.85,0011.79
2023-01-18 04:16:00,,0814.6,5.00,0.00,22.3,20.9,00.0,31.2,24.1,15.7,-002.4,0013.42,0011.61,0011.55
2023-01-18 04:17:00,,0814.3,5.00,0.00,22.4,21.4,00.0,31.2,24.2,15.7,-002.5,0013.21,0011.42,0011.36
2023-01-18 04:18:00,,0814.3,4.99,0.00,22.5,22.4,00.0,31.1,24.4,15.6,-002.5,0012.96,0011.18,0011.13
2023-01-18 04:19:00,,0814.4,5.01,0.00,22.6,23.1,00.0,31.2,24.6,15.5,-002.4,0012.73,0010.95,0010.90
2023-01-18 04:20:00,,0814.3,4.99,0.00,22.6,22.9,00.0,31.2,24.7,15.5,-002.2,0012.57,0010.78,0010.72
2023-01-18 04:21:00,,0814.3,5.01,0.00,22.7,22.5,00.0,31.3,24.6,15.4,-002.1,0012.45,0010.64,0010.57
2023-01-18 04:22:00,,0814.3,5.01,0.00,22.7,22.1,00.0,31.3,24.6,15.4,-002.1,0012.21,0010.53,0010.47
2023-01-18 04:23:00,,0814.2,5.00,0.00,22.7,21.9,00.0,31.3,24.5,15.4,-002.3,0012.02,0010.44,0010.39
2023-01-18 04:24:00,,0814.4,5.00,0.00,22.7,21.6,00.0,31.3,24.5,15.4,-002.3,0012.00,0010.38,0010.33
2023-01-18 04:25:00,,0814.4,4.99,0.00,22.7,21.5,00.0,31.3,24.5,15.4,-002.3,0012.03,0010.38,0010.31
2023-01-18 04:26:00,,0814.4,4.99,0.00,22.7,21.4,00.0,31.4,24.5,15.4,-002.3,0012.09,0010.37,0010.29
2023-01-18 04:27:00,,0814.6,4.99,0.00,22.6,21.3,00.0,31.4,24.4,15.5,-002.2,0012.07,0010.35,0010.26
2023-01-18 04:28:00,,0814.4,5.01,0.00,22.6,21.2,00.0,31.4,24.4,15.5,-002.3,0012.06,0010.32,0010.23
2023-01-18 04:29:00,,0814.5,5.02,0.00,22.6,21.2,00.0,31.4,24.4,15.5,-002.3,0011.99,0010.25,0010.16
2023-01-18 04:30:00,,0814.1,5.01,0.00,22.6,21.2,00.0,31.4,24.4,15.5,-002.3,0011.92,0010.19,0010.10
2023-01-18 04:31:00,,0814.1,5.00,0.00,22.6,21.2,00.0,31.4,24.4,15.5,-002.3,0011.87,0010.14,0010.06
2023-01-18 04:32:00,,0814.3,5.00,0.00,22.6,21.2,00.0,31.4,24.3,15.5,-002.1,0011.80,0010.09,0010.02
2023-01-18 04:33:00,,0814.2,5.00,0.00,22.6,21.2,00.0,31.4,24.3,15.6,-001.9,0011.81,0010.07,0009.98
2023-01-18 04:34:00,,0814.1,5.00,0.00,22.6,21.2,00.0,31.4,24.3,15.6,-001.7,0011.80,0010.04,0009.94
2023-01-18 04:35:00,,0814.1,4.99,0.00,22.6,21.1,00.0,31.4,24.3,15.6,-001.6,0011.73,0010.00,0009.91
2023-01-18 04:36:00,,0814.1,5.01,0.00,22.6,21.1,00.0,31.4,24.3,15.6,-001.6,0011.65,0009.95,0009.86
2023-01-18 04:37:00,,0814.2,5.01,0.00,22.6,21.2,00.0,31.4,24.3,15.6,-001.5,0011.52,0009.87,0009.81
2023-01-18 04:38:00,,0814.1,5.01,0.00,22.6,21.2,00.0,31.4,24.3,15.6,-001.5,0011.46,0009.81,0009.74
2023-01-18 04:39:00,,0814.1,4.98,0.00,22.5,21.2,00.0,31.4,24.3,15.6,-001.1,0011.43,0009.77,0009.69
2023-01-18 04:40:00,,0814.1,5.00,0.00,22.5,21.1,00.0,31.4,24.3,15.7,-000.8,0011.44,0009.76,0009.67
2023-01-18 04:41:00,,0814.2,5.01,0.00,22.5,21.1,00.0,31.4,24.2,15.7,-000.7,0011.42,0009.73,0009.64
2023-01-18 04:42:00,,0814.1,5.01,0.00,22.5,21.1,00.0,31.3,24.2,15.7,-000.8,0011.41,0009.69,0009.61
2023-01-18 04:43:00,,0814.2,5.00,0.00,22.5,21.0,00.0,31.3,24.2,15.7,-000.7,0011.43,0009.68,0009.59
2023-01-18 04:44:00,,0814.4,5.00,0.00,22.5,21.0,00.0,31.3,24.2,15.7,-000.9,0011.40,0009.67,0009.59
2023-01-18 04:45:00,,0814.2,5.00,0.00,22.5,21.0,00.0,31.3,24.2,15.8,-001.2,0011.37,0009.64,0009.57
2023-01-18 04:46:00,,0814.2,5.00,0.00,22.4,21.0,00.0,31.3,24.2,15.8,-001.4,0011.36,0009.62,0009.55
2023-01-18 04:47:00,,0814.3,5.00,0.00,22.5,21.0,00.0,31.3,24.2,15.8,-001.3,0011.37,0009.61,0009.53
2023-01-18 04:48:00,,0814.3,5.00,0.00,22.5,21.5,00.0,31.3,24.3,15.8,-001.2,0011.43,0009.65,0009.54
2023-01-18 04:49:00,,0814.4,5.00,0.00,22.6,22.5,00.0,31.3,24.5,15.7,-001.2,0011.46,0009.68,0009.56
2023-01-18 04:50:00,,0814.3,4.99,0.00,22.7,23.1,00.0,31.3,24.8,15.6,-001.2,0011.51,0009.70,0009.58
2023-01-18 04:51:00,,0814.2,4.99,0.00,22.8,22.8,00.0,31.4,24.8,15.6,-001.6,0011.52,0009.70,0009.59
2023-01-18 04:52:00,,0814.1,5.01,0.00,22.8,22.4,00.0,31.4,24.7,15.6,-002.0,0011.54,0009.71,0009.60
2023-01-18 04:53:00,,0814.1,5.00,0.00,22.8,22.1,00.0,31.4,24.7,15.6,-002.0,0011.53,0009.72,0009.61
2023-01-18 04:54:00,,0814.1,4.99,0.00,22.8,21.8,00.0,31.4,24.6,15.6,-002.1,0011.53,0009.74,0009.64
2023-01-18 04:55:00,,0814.0,5.01,0.00,22.8,21.6,00.0,31.4,24.6,15.6,-002.0,0011.59,0009.77,0009.65
2023-01-18 04:56:00,,0814.1,5.00,0.00,22.7,21.5,00.0,31.4,24.5,15.6,-002.0,0011.71,0009.80,0009.67
2023-01-18 04:57:00,,0814.1,5.00,0.00,22.7,21.4,00.0,31.4,24.5,15.6,-001.8,0011.78,0009.85,0009.70
2023-01-18 04:58:00,,0814.2,4.99,0.00,22.7,21.3,00.0,31.4,24.5,15.6,-001.5,0011.79,0009.87,0009.73
2023-01-18 04:59:00,,0814.1,5.02,0.00,22.7,21.3,00.0,31.4,24.5,15.6,-001.8,0011.79,0009.87,0009.76
